This demonstration page uses our WeatherBlox Daily Observations layout. Learn more.

38.88101, -77.10428

Hourly Observations for October 4, 2017

Temp ( °F °C ) Dew Point ( °F °C ) Humidity (%) Winds ( mph kmh ) Pressure ( in mb ) Visibility ( mi km ) Precip ( " mm )
12:52 am 00:52 Mostly Clear 62 16.7 57 13.9 84 84 SSE 6 9 30.54 1034 10 16.0934 0 0
1:52 am 01:52 Mostly Clear 60 15.6 56 13.3 86 86 WSW 5 7 30.53 1034 10 16.0934 0 0
2:52 am 02:52 Mostly Clear 59 15 56 13.3 90 90 SW 3 6 30.52 1033 10 16.0934 0 0
3:52 am 03:52 Mostly Clear 59 15 56 13.3 90 90 Calm 30.5 1033 10 16.0934 0 0
4:52 am 04:52 Mostly Clear 58 14.4 56 13.3 93 93 S 3 6 30.49 1033 10 16.0934 0 0
5:52 am 05:52 Mostly Clear 58 14.4 55 12.8 90 90 SSW 3 6 30.49 1032 10 16.0934 0 0
6:52 am 06:52 Mostly Clear 57 13.9 54 12.2 90 90 SW 5 7 30.48 1032 10 16.0934 0 0
7:52 am 07:52 Mostly Sunny 58 14.4 55 12.8 90 90 SW 3 6 30.48 1032 10 16.0934 0 0
8:52 am 08:52 Sunny 61 16.1 56 13.3 84 84 SSW 5 7 30.48 1032 10 16.0934 0 0
9:52 am 09:52 Sunny 64 17.8 59 15 84 84 S 9 15 30.47 1032 10 16.0934 0 0
10:52 am 10:52 Sunny 68 20 58 14.4 70 70 S 10 17 30.46 1032 10 16.0934 0 0
11:52 am 11:52 Sunny 71 21.7 58 14.4 63 63 S 12 19 30.44 1031 10 16.0934 0 0
12:52 pm 12:52 Sunny 73 22.8 58 14.4 59 59 S 9 15 30.41 1030 10 16.0934 0 0
1:52 pm 13:52 Mostly Sunny 74 23.3 58 14.4 57 57 SSE 9 15 30.37 1029 10 16.0934 0 0
2:52 pm 14:52 Sunny 76 24.4 58 14.4 54 54 S 10 17 30.35 1028 10 16.0934 0 0
3:52 pm 15:52 Sunny 76 24.4 58 14.4 54 54 SSE 10 17 30.33 1027 10 16.0934 0 0
4:52 pm 16:52 Sunny 76 24.4 59 15 56 56 S 14 22 30.31 1026 10 16.0934 0 0
5:52 pm 17:52 Sunny 75 23.9 58 14.4 55 55 SSW 8 13 30.29 1026 10 16.0934 0 0
6:52 pm 18:52 Mostly Clear 71 21.7 61 16.1 71 71 S 8 13 30.28 1025 10 16.0934 0 0
7:52 pm 19:52 Clear 69 20.6 59 15 70 70 S 7 11 30.29 1026 10 16.0934 0 0
8:52 pm 20:52 Partly Cloudy 67 19.4 59 15 76 76 S 9 15 30.29 1026 10 16.0934 0 0
9:52 pm 21:52 Partly Cloudy 66 18.9 60 15.6 81 81 S 7 11 30.29 1026 10 16.0934 0 0
10:52 pm 22:52 Clear 65 18.3 60 15.6 84 84 SSW 6 9 30.28 1026 10 16.0934 0 0
11:52 pm 23:52 Clear 64 17.8 59 15 84 84 SSW 5 7 30.27 1025 10 16.0934 0 0

Powered by AerisWeather